Flag for India Weather past 2 weeks in Qadian, Punjab, India

77 °F

Scattered clouds.

Feels Like: 78 °F
Forecast: 51 / 75 °F
Wind: 5 mph from East

Location: Amritsar Airport

Current Time: Nov 26, 2015 at 2:38:21 PM

Latest Report: Nov 26, 2015 at 2:00 PM

Visibility: 3 mi

Pressure: 29.92 "Hg

Humidity: 32%

Dew point: 45 °F

Location of QadianLocation

Historic Weather in Qadian — Graph


Qadian temperature yesterday

Maximum temperature yesterday: 79 °F (at 4:00 PM)
Minimum temperature yesterday: 52 °F (at 3:00 AM)
Average temperature yesterday: 64 °F

Past Weeks' High & Low Weather Summary

High82 °F (Nov 15, 3:00 PM)100% (Nov 21, 4:00 AM)30.15 "Hg (Nov 21, 4:00 AM)
Low48 °F (Nov 18, 6:30 AM)26% (Nov 25, 4:30 PM)29.89 "Hg (Nov 14, 2:30 PM)
Average64 °F67%29.99 "Hg
* Reported Nov 11 2:30 PM — Nov 26 12:30 PM, Qadian, Weather by CustomWeather, © 2015

Note: Actual official high and low records may vary slightly from our data, if they occured in-between our weather recording intervals... More about our weather records


Qadian weather history for previous 24 hours

Time TempWeatherWind HumidityBarometerVisibility
12:30 PM
Thu, Nov 26
77 °FScattered clouds.No wind34%29.98 "Hg3 mi
11:30 AM75 °FScattered clouds.No wind36%29.98 "Hg2 mi
9:30 AM66 °FScattered clouds.No wind56%29.98 "Hg1 mi
9:00 AM64 °FScattered clouds.No wind64%29.98 "Hg2 mi
8:30 AM59 °FFog.No wind77%29.98 "Hg2 mi
8:00 AM57 °FFog.No wind77%29.95 "Hg2 mi
7:30 AM57 °FFog.No wind77%29.95 "Hg2 mi
7:00 AM57 °FFog.No wind77%29.95 "Hg2 mi
6:30 AM57 °FFog.No wind77%29.92 "Hg2 mi
5:30 AM57 °FFog.No wind82%29.92 "Hg2 mi
5:00 AM55 °FFog.No wind82%29.92 "Hg2 mi
4:00 AM57 °FPartly cloudy.No wind72%29.95 "Hg2 mi
3:30 AM57 °FPartly cloudy.No wind77%29.95 "Hg2 mi
2:30 AM57 °FPartly cloudy.No wind77%29.95 "Hg2 mi
2:00 AM57 °FPartly cloudy.No wind72%29.98 "Hg2 mi
1:30 AM59 °FPartly cloudy.No wind68%29.98 "Hg2 mi
1:00 AM57 °FPartly cloudy.No wind72%29.98 "Hg2 mi
12:30 AM57 °FPartly cloudy.No wind77%29.98 "Hg2 mi
12:00 AM59 °FPassing clouds.No wind68%29.98 "Hg3 mi
11:30 PM
Wed, Nov 25
59 °FPassing clouds.No wind68%29.98 "Hg3 mi
11:00 PM61 °FPassing clouds.No wind63%29.98 "Hg3 mi
10:30 PM61 °FPassing clouds.No wind63%29.98 "Hg3 mi
10:00 PM61 °FPassing clouds.No wind68%29.98 "Hg3 mi
9:30 PM63 °FPassing clouds.No wind59%29.98 "Hg3 mi
9:00 PM61 °FPassing clouds.No wind63%29.98 "Hg3 mi
8:30 PM63 °FPassing clouds.No wind59%29.98 "Hg3 mi
8:00 PM63 °FPassing clouds.No wind59%29.98 "Hg3 mi
7:30 PM66 °FPassing clouds.No wind49%29.98 "Hg3 mi
6:30 PM68 °FPassing clouds.No wind43%29.95 "Hg3 mi
5:30 PM72 °FScattered clouds.No wind36%29.95 "Hg4 mi
5:00 PM75 °FScattered clouds.7 mph31%29.95 "Hg4 mi
4:30 PM77 °FScattered clouds.12 mph26%29.95 "Hg4 mi
4:00 PM79 °FScattered clouds.12 mph28%29.98 "Hg4 mi
Weather by CustomWeather, © 2015

See weather overviewHow to use our weather pages